This is the latest recevied weather packets stored in our database for station/object IW2LSY-11. If no packets are shown the sender has not sent any weather packets the latest 10 day(s).
| Time | Temp. | Humidity | Pressure | Rain* | Wind** | Luminosity | Snow |
|---|---|---|---|---|---|---|---|
| 1778109014 | 9.44° C | 10% | - | - | - | 253 W/m² | - |
| 1778108414 | 10° C | 99% | 1013.7 hPa | - | - | 254 W/m² | - |
| 1778107815 | 9.44° C | 10% | - | - | - | 254 W/m² | - |
| 1778107205 | 8.89° C | 10% | - | - | - | 255 W/m² | - |
| 1778106605 | 10° C | 94% | 1014.3 hPa | - | - | 255 W/m² | - |
| 1778106006 | 10° C | 96% | 1014.2 hPa | - | - | 256 W/m² | - |
| 1778105406 | 10° C | 98% | 1014.2 hPa | - | - | 256 W/m² | - |
| 1778104806 | 10° C | 97% | 1014.2 hPa | - | - | 256 W/m² | - |
| 1778104207 | 11.11° C | 92% | 1014.2 hPa | - | - | 257 W/m² | - |
| 1778103608 | 11.11° C | 92% | 1014.3 hPa | - | - | 257 W/m² | - |
| 1778103009 | 10.56° C | 94% | 1014.3 hPa | - | - | 257 W/m² | - |
| 1778102410 | 11.11° C | 92% | 1014.5 hPa | - | - | 258 W/m² | - |
| 1778101810 | 10.56° C | 94% | 1014.7 hPa | - | - | 258 W/m² | - |
| 1778101210 | 10.56° C | 94% | 1014.8 hPa | - | - | 258 W/m² | - |
| 1778100611 | 11.11° C | 96% | 1014.8 hPa | - | - | 259 W/m² | - |
| 1778100012 | 10° C | 99% | 1014.8 hPa | - | - | 259 W/m² | - |
| 1778099412 | 11.11° C | 92% | 1014.4 hPa | - | - | 260 W/m² | - |
| 1778098812 | 10.56° C | 94% | 1013.8 hPa | - | - | 260 W/m² | - |
| 1778098212 | 11.11° C | 91% | 1013.8 hPa | - | - | 260 W/m² | - |
| 1778097612 | 10.56° C | 94% | 1013.7 hPa | - | - | 260 W/m² | - |
| 1778097012 | 10.56° C | 95% | 1013.6 hPa | - | - | 260 W/m² | - |
| 1778096413 | 10.56° C | 95% | 1013.6 hPa | - | - | 261 W/m² | - |
| 1778095813 | 10.56° C | 93% | 1013.4 hPa | - | - | 261 W/m² | - |
| 1778095213 | 10.56° C | 95% | 1013.5 hPa | - | - | 262 W/m² | - |
| 1778094614 | 11.11° C | 93% | 1013.3 hPa | - | - | 263 W/m² | - |
* Rain since midnight (hover to see other rain measurements)
** Current wind speed in m/s (hover to see current wind gust speed)